Regional Weather Roundup
Issued by NWS Memphis, TN

Home | Current Version | Previous Version | Text Only | Print | Product List | Glossary On
Versions: 1 2 3 4 5 6 7 8 9 10 11 12 13 14 15 16 17 18 19 20 21 22 23 24 25 26 27 28 29 30 31 32 33 34 35 36 37 38 39 40 41 42 43 44 45 46 47 48 49 50
000
ASUS44 KMEG 061700
RWRMEG
MEMPHIS CWA HOURLY WEATHER ROUNDUP
NATIONAL WEATHER SERVICE MEMPHIS TN
1200 PM CDT MON JUL 06 2015

...WEST TENNESSEE...

CITY           SKY/WX    TMP DP  RH WIND       PRES   REMARKS
MEMPHIS INTL   CLOUDY    81  73  76 S14       30.14S
NWS MEMPHIS      N/A     79 N/A N/A MISG        N/A
JACKSON        CLOUDY    81  72  74 SW13      30.13R
DYERSBURG        N/A    N/A N/A N/A MISG        N/A


...EASTERN ARKANSAS...

CITY           SKY/WX    TMP DP  RH WIND       PRES   REMARKS
JONESBORO      CLOUDY    81  73  76 S12       30.09F
WEST MEMPHIS   CLOUDY    79  75  87 S10       30.12S
BATESVILLE     PTSUNNY   84  73  70 SW9       30.07F HX  91
WALNUT RIDGE   PTSUNNY   81  72  74 S13       30.07F
BLYTHEVILLE    CLOUDY    80  74  81 S12       30.09F
SEARCY         CLOUDY    82  75  79 SE8       30.10F
STUTTGART      CLOUDY    81  72  74 MISG      30.11S
PINE BLUFF     MOSUNNY   83  73  72 SW8       30.10F
MONTICELLO     MOSUNNY   83  75  77 W12       30.11S HX  90


...NORTH MISSISSIPPI...

CITY           SKY/WX    TMP DP  RH WIND       PRES   REMARKS
TUPELO         MOSUNNY   81  69  67 SW9       30.14F
OLIVE BRANCH   PTSUNNY   77  75  94 S10       30.14F
TUNICA         PTSUNNY   81  72  74 S9        30.15S
GREENWOOD      CLOUDY    81  73  76 S8        30.16F
GOLDEN TRIANGL MOSUNNY   81  72  74 W6        30.17F


...SOUTHEAST MISSOURI...

CITY           SKY/WX    TMP DP  RH WIND       PRES   REMARKS
WEST PLAINS    PTSUNNY   81  71  71 SW12      30.09S
POPLAR BLUFF   LGT RAIN  79  73  82 SW7       30.06F
CAPE GIRARDEAU PTSUNNY   78  72  81 SW9       30.07S


...NORTHWEST ALABAMA...

CITY           SKY/WX    TMP DP  RH WIND       PRES   REMARKS
MUSCLE SHOALS  MOSUNNY   85  67  54 SW14      30.17S


...MIDDLE TENNESSEE...

CITY           SKY/WX    TMP DP  RH WIND       PRES   REMARKS
NASHVILLE      MOSUNNY   83  71  67 VRB7      30.15R
CLARKSVILLE    MOSUNNY   83  70  64 S9        30.12S


...WESTERN KENTUCKY...

CITY           SKY/WX    TMP DP  RH WIND       PRES   REMARKS
PADUCAH        MOSUNNY   83  71  67 SW12      30.07F
FORT CAMPBELL  MOSUNNY   84  71  65 SW13      30.11S HX  90


...CENTRAL ARKANSAS...

CITY           SKY/WX    TMP DP  RH WIND       PRES   REMARKS
LITTLE ROCK    MOSUNNY   85  71  63 W13       30.09S HX  90


SKY/WX REPORTED AS FAIR MEANS FEW OR NO CLOUDS BELOW
12 THOUSAND FEET.




USA.gov is the U.S. government's official web portal to all federal, state and local government web resources and services.